PST,Max TemperatureF,Mean TemperatureF,Min TemperatureF,Max Dew PointF,MeanDew PointF,Min DewpointF,Max Humidity, Mean Humidity, Min Humidity, Max Sea Level PressureIn, Mean Sea Level PressureIn, Min Sea Level PressureIn, Max VisibilityMiles, Mean VisibilityMiles, Min VisibilityMiles, Max Wind SpeedMPH, Mean Wind SpeedMPH, Max Gust SpeedMPH,PrecipitationIn, CloudCover, Events, WindDirDegrees
2011-11-1,50,42,34,43,37,34,100,78,56,30.56,30.49,30.34,10,4,0,22,5,30,0.00,3,Fog,100
2011-11-2,58,51,44,48,36,28,100,67,33,30.32,30.03,29.87,10,9,4,31,15,40,0.55,3,Rain,117
2011-11-3,52,44,35,46,41,36,100,80,59,29.93,29.88,29.82,10,10,7,7,0,33,0.03,5,Rain,65
2011-11-4,48,43,38,40,38,37,100,83,65,29.99,29.94,29.88,10,10,5,10,2,15,0.01,8,Rain,193
2011-11-5,48,42,36,42,39,37,100,88,76,29.91,29.82,29.75,10,9,2,13,7,16,0.10,7,Rain,85
2011-11-6,52,42,32,41,37,32,100,82,63,30.18,29.94,29.80,10,5,0,12,1,15,0.00,3,Fog,260
2011-11-7,53,47,41,46,43,41,100,86,71,30.30,30.25,30.20,10,9,2,9,3,29,T,8,Rain,182
2011-11-8,55,46,37,44,41,38,100,80,59,30.29,30.26,30.23,10,8,1,18,6,23,T,4,,95
2011-11-9,55,53,50,42,38,36,74,63,51,30.26,30.20,30.12,10,10,10,23,17,30,T,2,Rain,90
2011-11-10,56,49,42,41,38,35,83,65,47,30.14,30.06,29.94,10,10,10,23,11,29,0.00,0,,88
2011-11-11,51,41,30,46,39,30,100,86,71,29.91,29.76,29.60,10,7,0,18,4,26,0.21,6,Fog-Rain,256
2011-11-12,50,46,41,45,43,39,93,87,80,29.96,29.86,29.79,10,9,5,22,7,30,0.14,8,Rain,221
2011-11-13,53,49,45,46,46,44,93,82,71,30.01,29.95,29.87,10,10,6,15,6,23,0.06,8,Rain,231
2011-11-14,51,44,37,47,43,37,100,92,83,30.18,30.08,29.96,10,7,1,16,5,22,0.10,7,Rain,243
2011-11-15,48,40,32,42,37,33,100,91,82,30.31,30.25,30.18,10,3,0,6,1,7,0.00,6,Fog,217
2011-11-16,55,44,33,54,41,32,100,84,67,30.23,29.99,29.74,10,6,2,26,14,37,0.39,7,Rain,97
2011-11-17,54,48,41,54,41,37,100,91,82,29.96,29.84,29.68,10,9,5,17,9,23,0.24,8,Rain,239
2011-11-18,46,42,37,38,36,34,93,85,76,29.76,29.70,29.63,10,10,5,16,7,22,0.12,8,Rain,203
2011-11-19,44,38,32,40,36,33,92,87,82,29.88,29.83,29.75,10,8,0,12,4,15,0.03,7,Fog-Rain,121
2011-11-20,43,36,28,34,31,27,100,83,65,29.95,29.89,29.87,10,6,0,21,10,26,0.00,4,Fog,83
2011-11-21,49,44,38,45,39,32,100,88,76,29.87,29.80,29.72,10,8,3,21,9,25,0.57,8,Rain,82
2011-11-22,61,52,43,53,49,43,100,82,64,29.71,29.64,29.55,10,8,3,24,10,33,1.25,8,Rain,178
2011-11-23,60,51,42,50,46,41,100,92,83,29.88,29.71,29.51,10,8,3,14,3,17,0.76,8,Rain,252
2011-11-24,48,43,38,45,41,37,100,88,76,29.99,29.83,29.73,10,10,7,23,6,29,0.11,7,Rain,194
2011-11-25,51,45,39,41,39,36,93,79,65,30.42,30.32,30.03,10,10,4,24,7,29,0.04,5,Rain,110
2011-11-26,52,49,45,40,37,35,71,63,54,30.41,30.32,30.17,10,10,10,24,18,31,T,4,,93
2011-11-27,57,51,44,52,45,39,100,83,66,30.39,30.23,30.12,10,7,2,23,7,30,0.70,6,Rain,2
2011-11-28,46,43,40,45,43,39,100,95,89,30.48,30.44,30.39,10,7,0,7,1,8,T,8,Fog-Rain,238
2011-11-29,46,43,39,43,39,37,100,91,82,30.40,30.33,30.27,10,8,2,17,3,24,0.02,8,Rain,227
2011-11-30,51,42,33,45,40,33,100,87,74,30.71,30.56,30.28,10,7,0,18,2,26,0.01,5,Fog-Rain,256